"2009-03-26 00:00:30",743380,14.18,309.3,4.562,0.553,7.504,101.2668,2.531,3.879,38.84,0,109.8,13.44,3.29,271.3
"2009-03-26 00:01:00",743381,13.93,311.6,4.442,0.573,7.541,101.2549,2.501,3.88,39.53,0,109.8,13.44,3.26,273.6
"2009-03-26 00:01:30",743382,13.44,309.7,4.019,0.911,7.603,101.2547,2.501,3.867,39.75,0,109.8,13.44,3.26,271.7
"2009-03-26 00:02:00",743383,13.62,310.1,4.611,0.626,7.751,101.2544,2.5,3.855,39.87,0,109.8,13.45,3.26,272.1
"2009-03-26 00:02:30",743384,14.21,309.4,4.784,0.576,7.653,101.2467,2.48,3.845,39.56,0,109.8,13.45,3.24,271.4
"2009-03-26 00:03:00",743385,13.92,313.4,4.419,0.824,7.653,101.225,2.425,3.803,39.38,0,109.8,13.45,3.19,275.4
"2009-03-26 00:03:30",743386,13.93,309.8,5.465,0.827,7.684,101.2207,2.414,3.788,39.16,0,109.8,13.45,3.17,271.8
"2009-03-26 00:04:00",743387,14.49,310.1,4.534,0.742,7.765,101.2207,2.414,3.77,38.69,0,109.8,13.45,3.17,272.1
"2009-03-26 00:04:30",743388,14.83,310.5,4.135,0.598,7.727,101.2168,2.404,3.755,38.52,0,109.7,13.45,3.16,272.5
"2009-03-26 00:05:00",743389,14.99,311.8,3.498,0.653,7.819,101.1979,2.356,3.748,38.46,0,109.8,13.45,3.12,273.8
"2009-03-26 00:05:30",743390,15.06,309.6,4.194,0.816,7.903,101.1877,2.33,3.722,38.36,0,109.8,13.45,3.09,271.6
"2009-03-26 00:06:00",743391,14.4,312.3,4.841,0.752,7.985,101.1868,2.328,3.711,38.73,0,109.8,13.46,3.09,274.3
"2009-03-26 00:06:30",743392,14.99,308.3,3.958,0.627,8.16,101.1871,2.328,3.715,38.39,0,109.8,13.46,3.09,270.3
"2009-03-26 00:07:00",743393,14.48,304.3,4.712,0.597,8.01,101.1868,2.328,3.688,38.66,0,109.8,13.46,3.09,266.3
"2009-03-26 00:07:30",743394,15.07,304,4.923,0.662,8.07,101.1871,2.328,3.7,39.37,0,109.8,13.46,3.09,266.0
"2009-03-26 00:08:00",743395,15.47,304.7,4.51,0.563,8.12,101.1891,2.333,3.692,38.98,0,109.8,13.46,3.09,266.7
"2009-03-26 00:08:30",743396,15.52,311.2,4.145,0.936,8.16,101.188,2.33,3.673,38.55,0,109.8,13.46,3.09,273.2
"2009-03-26 00:09:00",743397,14.99,316.9,5.456,0.751,8.24,101.1892,2.334,3.658,38.22,0,109.8,13.46,3.09,278.9
"2009-03-26 00:09:30",743398,14.94,315,4.472,0.909,8.26,101.1937,2.345,3.643,37.59,0,109.8,13.46,3.11,277.0
"2009-03-26 00:10:00",743399,14.62,308.7,4.62,0.708,8.35,101.1986,2.358,3.638,37.64,0,109.8,13.46,3.12,270.7
"2009-03-26 00:10:30",743400,13.15,323,7.303,1.207,8.31,101.2037,2.371,3.644,37.78,0,109.8,13.46,3.13,285.0
"2009-03-26 00:11:00",743401,11.15,314.4,5.871,1.374,8.11,101.2086,2.383,3.648,37.66,0,109.8,13.46,3.14,276.4
"2009-03-26 00:11:30",743402,12.66,306,8.49,1.098,7.979,101.2106,2.388,3.662,37.98,0,109.8,13.46,3.15,268.0
"2009-03-26 00:12:00",743403,12.47,305.8,7.37,0.661,7.875,101.2114,2.39,3.678,38.92,0,109.8,13.46,3.15,267.8
"2009-03-26 00:12:30",743404,11.62,311.7,4.506,1.177,7.974,101.2137,2.396,3.671,37.55,0,109.8,13.46,3.16,273.7
"2009-03-26 00:13:00",743405,11.6,314.4,4.773,0.94,7.71,101.2157,2.401,3.675,37.11,0,109.8,13.46,3.16,276.4
"2009-03-26 00:13:30",743406,12.35,309.6,4.291,0.933,7.291,101.2163,2.403,3.681,37.81,0,109.8,13.46,3.16,271.6
"2009-03-26 00:14:00",743407,11.32,313.6,5.214,0.965,7.354,101.2217,2.416,3.687,38.44,0,109.8,13.46,3.18,275.6
"2009-03-26 00:14:30",743408,12.01,310.1,5.392,1.077,7.439,101.2307,2.44,3.675,38.42,0,109.7,13.46,3.20,272.1
"2009-03-26 00:15:00",743409,9.66,317.6,5.29,1.072,7.445,101.237,2.455,3.698,38.02,0,109.8,13.46,3.22,279.6
"2009-03-26 00:15:30",743410,9.89,319.4,5.025,0.834,7.463,101.2426,2.47,3.695,37.87,0,109.8,13.46,3.23,281.4
"2009-03-26 00:16:00",743411,10.52,308.5,6.395,1.441,7.501,101.2483,2.484,3.703,37.61,0,109.8,13.46,3.25,270.5
"2009-03-26 00:16:30",743412,12.26,311.8,5.22,0.913,7.319,101.2517,2.493,3.733,37.68,0,109.7,13.46,3.25,273.8
"2009-03-26 00:17:00",743413,11.54,318.2,5.356,1.338,7.363,101.2548,2.501,3.735,37.76,0,109.7,13.46,3.26,280.2
"2009-03-26 00:17:30",743414,9.8,309.1,8.56,0.86,7.321,101.2551,2.502,3.722,38.07,0,109.7,13.46,3.26,271.1
"2009-03-26 00:18:00",743415,9.87,309.9,7.826,0.857,7.348,101.2551,2.502,3.741,38.55,0,109.7,13.46,3.26,271.9
"2009-03-26 00:18:30",743416,9.43,308.3,4.732,0.755,7.129,101.2551,2.502,3.752,37.96,0,109.7,13.46,3.26,270.3
"2009-03-26 00:19:00",743417,9.81,304.2,6.667,0.861,6.627,101.2551,2.502,3.749,38.02,0,109.7,13.46,3.26,266.2
"2009-03-26 00:19:30",743418,9.54,296.3,6.074,1.323,5.987,101.2551,2.502,3.765,39.17,0,109.7,13.46,3.26,258.3
"2009-03-26 00:20:00",743419,9.4,299.8,7.599,1.112,5.904,101.2551,2.502,3.698,39.86,0,109.8,13.46,3.26,261.8
"2009-03-26 00:20:30",743420,8.25,294.3,5.38,0.941,3.401,101.2551,2.502,3.587,39.83,0,109.7,13.47,3.26,256.3
"2009-03-26 00:21:00",743421,9.29,300.4,7.847,1.065,5.903,101.2551,2.502,3.594,39.73,0,109.7,13.47,3.26,262.4
"2009-03-26 00:21:30",743422,8.77,302.9,8.22,1.059,6.658,101.2551,2.502,3.682,39.69,0,109.7,13.47,3.26,264.9
"2009-03-26 00:22:00",743423,8.48,307.7,5.439,0.871,6.979,101.2551,2.502,3.753,39.91,0,109.7,13.47,3.26,269.7
"2009-03-26 00:22:30",743424,9.22,300.5,5.339,0.924,7.181,101.2551,2.502,3.762,39.7,0,109.7,13.47,3.26,262.5
"2009-03-26 00:23:00",743425,9.46,294.8,6.383,0.74,7.45,101.2551,2.502,3.766,39.5,0,109.7,13.47,3.26,256.8
"2009-03-26 00:23:30",743426,9.31,292.9,4.505,0.698,7.12,101.2537,2.498,3.77,40.29,0,109.7,13.47,3.26,254.9
"2009-03-26 00:24:00",743427,8.75,287.5,4.949,0.747,6.865,101.2497,2.488,3.774,41.03,0,109.8,13.47,3.25,249.5
"2009-03-26 00:24:30",743428,9.15,285,5.299,0.766,6.594,101.2412,2.466,3.794,41.58,0,109.7,13.47,3.23,247.0
"2009-03-26 00:25:00",743429,9.12,293.9,7.322,0.82,6.393,101.2248,2.425,3.77,41.36,0,109.7,13.47,3.18,255.9
"2009-03-26 00:25:30",743430,8.3,301.9,5.84,0.807,6.307,101.2214,2.416,3.763,40.96,0,109.7,13.47,3.18,263.9
"2009-03-26 00:26:00",743431,7.792,295.6,4.603,1.02,3.748,101.2212,2.415,3.629,40.83,0,109.7,13.47,3.18,257.6
"2009-03-26 00:26:30",743432,7.269,300.2,3.646,0.745,1.991,101.2212,2.415,3.453,40.57,0,109.7,13.47,3.18,262.2
"2009-03-26 00:27:00",743433,8.68,311.8,6.898,1.453,4.594,101.2212,2.415,3.722,40.61,0,109.7,13.48,3.18,273.8
"2009-03-26 00:27:30",743434,8.57,301.1,5.535,0.771,7.594,101.2212,2.415,3.741,40.92,0,109.7,13.48,3.18,263.1
"2009-03-26 00:28:00",743435,9.87,309.5,4.272,0.661,7.65,101.2209,2.414,3.754,41.45,0,109.7,13.48,3.17,271.5
"2009-03-26 00:28:30",743436,8.81,302.2,5.437,0.678,7.756,101.2135,2.396,3.742,42.19,0,109.7,13.48,3.16,264.2
"2009-03-26 00:29:00",743437,8.91,299.8,4.906,0.78,6.897,101.1971,2.354,3.729,42.15,0,109.7,13.48,3.11,261.8
"2009-03-26 00:29:30",743438,9.45,291.8,5.125,1.153,6.637,101.1872,2.329,3.713,42.24,0,109.7,13.47,3.09,253.8
"2009-03-26 00:30:00",743439,9.6,295,6.011,1.123,6.345,101.1875,2.329,3.645,41.83,0,109.7,13.47,3.09,257.0
"2009-03-26 00:30:30",743440,10.18,290.8,5.412,0.877,6.32,101.1872,2.329,3.661,41.56,0,109.7,13.47,3.09,252.8
"2009-03-26 00:31:00",743441,9.13,300.3,5.88,0.907,6.458,101.1788,2.307,3.665,41.09,0,109.7,13.47,3.07,262.3
"2009-03-26 00:31:30",743442,8.67,304.8,5.382,1.014,6.148,101.1692,2.282,3.674,40.45,0,109.7,13.47,3.04,266.8
"2009-03-26 00:32:00",743443,9.11,306.8,6.31,1.051,5.719,101.1562,2.249,3.625,40.27,0,109.7,13.47,3.01,268.8
"2009-03-26 00:32:30",743444,8.37,295.2,4.812,1.293,4.465,101.1545,2.245,3.463,40.16,0,109.7,13.47,3.00,257.2
"2009-03-26 00:33:00",743445,8.69,293.5,5.177,1.195,3.82,101.157,2.251,3.414,40.78,0,109.7,13.47,3.01,255.5
"2009-03-26 00:33:30",743446,9.23,297.3,6.273,1.159,5.57,101.159,2.257,3.568,41.27,0,109.7,13.47,3.02,259.3
"2009-03-26 00:34:00",743447,9.44,301.9,6.09,1.02,6.926,101.1585,2.255,3.592,41.25,0,109.7,13.48,3.02,263.9
"2009-03-26 00:34:30",743448,10.27,300.9,3.197,0.7,7.341,101.1628,2.266,3.615,41.99,0,109.7,13.48,3.03,262.9
"2009-03-26 00:35:00",743449,10.2,294.4,5.143,0.504,7.345,101.1611,2.262,3.579,42.38,0,109.7,13.49,3.02,256.4
"2009-03-26 00:35:30",743450,9.91,298.2,4.359,0.68,6.717,101.1421,2.213,3.589,42.93,0,109.7,13.49,2.97,260.2
"2009-03-26 00:36:00",743451,9.32,296.9,4.024,0.858,6.578,101.1345,2.194,3.588,43.33,0,109.7,13.49,2.95,258.9
"2009-03-26 00:36:30",743452,8.87,302.7,6.567,0.63,6.508,101.1317,2.187,3.589,43.16,0,109.7,13.49,2.95,264.7
"2009-03-26 00:37:00",743453,8.98,303.1,4.962,0.704,6.19,101.1326,2.189,3.56,42.96,0,109.7,13.49,2.95,265.1
"2009-03-26 00:37:30",743454,8.81,303.2,3.86,0.721,5.862,101.134,2.193,3.538,43.2,0,109.7,13.49,2.95,265.2
"2009-03-26 00:38:00",743455,8.58,300.3,6.832,0.638,6.34,101.1343,2.193,3.523,43.04,0,109.7,13.49,2.95,262.3
"2009-03-26 00:38:30",743456,8.3,294.6,6.959,1.291,4.887,101.1241,2.168,3.465,43,0,109.7,13.49,2.93,256.6
"2009-03-26 00:39:00",743457,7.438,289.8,5.64,1.483,2.971,101.1058,2.121,3.283,42.61,0,109.7,13.49,2.88,251.8
"2009-03-26 00:39:30",743458,7.185,297.4,8.56,0.999,2.756,101.1083,2.127,3.303,42.19,0,109.7,13.49,2.89,259.4
"2009-03-26 00:40:00",743459,8.14,300.9,7.895,1.421,6.047,101.1106,2.133,3.422,41.85,0,109.7,13.49,2.89,262.9
"2009-03-26 00:40:30",743460,9.48,307.7,5.546,0.883,7.327,101.1123,2.137,3.48,41.81,0,109.7,13.49,2.90,269.7
"2009-03-26 00:41:00",743461,9.45,308.8,5.436,0.674,7.841,101.1112,2.135,3.446,41.47,0,109.7,13.49,2.89,270.8
"2009-03-26 00:41:30",743462,8.88,305,4.703,0.809,7.391,101.1112,2.135,3.451,41.32,0,109.7,13.49,2.89,267.0
"2009-03-26 00:42:00",743463,8.87,306.5,4.827,0.801,6.836,101.1095,2.13,3.402,41.43,0,109.7,13.49,2.89,268.5
"2009-03-26 00:42:30",743464,8.18,302.9,5.157,1.152,5.799,101.1039,2.116,3.377,41.54,0,109.7,13.49,2.88,264.9
"2009-03-26 00:43:00",743465,7.944,301,6.127,1.187,4.76,101.103,2.114,3.354,42.05,0,109.7,13.49,2.87,263.0
"2009-03-26 00:43:30",743466,7.651,302.9,6.303,1.282,4.51,101.1048,2.118,3.227,42.13,0,109.7,13.49,2.88,264.9
"2009-03-26 00:44:00",743467,8.5,305.3,5.879,1.085,6.157,101.0974,2.099,3.364,42.47,0,109.7,13.5,2.86,267.3
"2009-03-26 00:44:30",743468,8.88,307.7,3.482,0.753,7.1,101.0946,2.092,3.406,42.69,0,109.7,13.5,2.85,269.7
"2009-03-26 00:45:00",743469,8.78,306.9,5.755,0.932,6.721,101.0903,2.081,3.392,43.03,0,109.7,13.5,2.84,268.9
"2009-03-26 00:45:30",743470,8.87,310.7,5.394,1.031,6.555,101.0858,2.07,3.374,42.92,0,109.7,13.49,2.83,272.7
"2009-03-26 00:46:00",743471,9.08,309.9,4.952,0.649,6.764,101.085,2.068,3.399,42.82,0,109.7,13.49,2.83,271.9
"2009-03-26 00:46:30",743472,8.67,311.3,5.962,1.078,5.907,101.0856,2.069,3.396,42.83,0,109.7,13.49,2.83,273.3
"2009-03-26 00:47:00",743473,8.38,310.8,6.107,1.069,5.456,101.0858,2.07,3.265,42.18,0,109.7,13.49,2.83,272.8
"2009-03-26 00:47:30",743474,7.51,307.2,6.332,1.208,5.705,101.0858,2.07,3.337,41.77,0,109.7,13.49,2.83,269.2
"2009-03-26 00:48:00",743475,7.628,313.9,8.42,1.057,6.118,101.0858,2.07,3.271,41.64,0,109.7,13.49,2.83,275.9
"2009-03-26 00:48:30",743476,6.903,319.5,7.521,1.24,6.555,101.0858,2.07,3.38,41.14,0,109.7,13.49,2.83,281.5
"2009-03-26 00:49:00",743477,6.86,319.5,6.768,1.096,5.999,101.0858,2.07,3.329,40.46,0,109.7,13.49,2.83,281.5
"2009-03-26 00:49:30",743478,6.337,323.1,6.187,1.444,6.12,101.0858,2.07,3.293,40.27,0,109.7,13.49,2.83,285.1
"2009-03-26 00:50:00",743479,4.576,316.2,7.358,0.639,3.687,101.0858,2.07,3.196,40.02,0,109.7,13.5,2.83,278.2
"2009-03-26 00:50:30",743480,6.384,317.8,6.219,0.769,7.17,101.0858,2.07,3.264,39.81,0,109.7,13.5,2.83,279.8
"2009-03-26 00:51:00",743481,5.309,315.3,8.3,1.223,5.753,101.0858,2.07,3.291,39.72,0,109.7,13.5,2.83,277.3
"2009-03-26 00:51:30",743482,5.827,324.8,10.1,0.952,6.51,101.0858,2.07,3.34,39.62,0,109.7,13.5,2.83,286.8
"2009-03-26 00:52:00",743483,5.977,314.7,8.33,1.325,5.465,101.0858,2.07,3.267,39.86,0,109.7,13.51,2.83,276.7
"2009-03-26 00:52:30",743484,6.109,323.3,6.791,1.251,6.045,101.0858,2.07,3.348,39.95,0,109.7,13.51,2.83,285.3
"2009-03-26 00:53:00",743485,5.134,320,4.891,1.433,5.009,101.0858,2.07,3.275,39.9,0,109.7,13.51,2.83,282.0
"2009-03-26 00:53:30",743486,5.647,334.8,6.965,1.284,6.502,101.0858,2.07,3.346,39.98,0,109.7,13.51,2.83,296.8
"2009-03-26 00:54:00",743487,5.577,316.1,11.65,1.21,5.756,101.0858,2.07,3.333,40.08,0,109.7,13.51,2.83,278.1
"2009-03-26 00:54:30",743488,5.123,303.2,7.721,0.832,3.837,101.0861,2.071,3.32,40.62,0,109.7,13.51,2.83,265.2
"2009-03-26 00:55:00",743489,6.3,308.6,6.025,1.253,5.166,101.087,2.073,3.224,40.71,0,109.7,13.51,2.83,270.6
"2009-03-26 00:55:30",743490,5.977,319,6.543,1.006,6.274,101.0887,2.077,3.354,40.55,0,109.7,13.51,2.84,281.0
"2009-03-26 00:56:00",743491,5.231,318.2,7.292,1.197,6.048,101.0932,2.089,3.364,40.26,0,109.6,13.51,2.85,280.2
"2009-03-26 00:56:30",743492,5.608,311.6,7.237,1.151,5.855,101.0929,2.088,3.349,39.93,0,109.7,13.51,2.85,273.6
"2009-03-26 00:57:00",743493,5.691,313.8,7.547,1.229,5.722,101.1,2.106,3.353,39.64,0,109.7,13.51,2.87,275.8
"2009-03-26 00:57:30",743494,4.317,318.7,7.39,0.88,4.144,101.0991,2.104,3.289,39.39,0,109.7,13.51,2.86,280.7
"2009-03-26 00:58:00",743495,3.524,323.8,6.205,1.191,4.093,101.1031,2.114,3.279,39.2,0,109.7,13.51,2.87,285.8
"2009-03-26 00:58:30",743496,4.486,319.4,5.751,1.111,6.436,101.1011,2.109,3.321,39.14,0,109.7,13.51,2.87,281.4
"2009-03-26 00:59:00",743497,4.198,312.2,5.917,1.278,4.375,101.1014,2.11,3.331,39.05,0,109.7,13.51,2.87,274.2
"2009-03-26 00:59:30",743498,5.764,320.6,5.209,1.16,6.501,101.1057,2.12,3.412,38.97,0,109.7,13.51,2.88,282.6
"2009-03-26 01:00:00",743499,5.629,317,8.29,1.277,6.131,101.1085,2.128,3.42,38.88,0,109.7,13.51,2.89,279.0
"2009-03-26 01:00:30",743500,5.304,316.6,5.388,1.199,4.722,101.1145,2.143,3.261,38.71,0,109.7,13.52,2.90,278.6
"2009-03-26 01:01:00",743501,5.601,315.3,6,1.321,5.476,101.1201,2.157,3.397,38.6,0,109.7,13.52,2.92,277.3
"2009-03-26 01:01:30",743502,5.704,317.6,5.481,1.187,5.981,101.1216,2.161,3.436,38.49,0,109.7,13.52,2.92,279.6
"2009-03-26 01:02:00",743503,6.273,322.7,5.873,1.01,7.049,101.1258,2.172,3.401,38.29,0,109.7,13.51,2.93,284.7
"2009-03-26 01:02:30",743504,5.038,320.8,6.604,1.014,6.263,101.1298,2.182,3.445,38.23,0,109.7,13.51,2.94,282.8
"2009-03-26 01:03:00",743505,4.834,322.9,8.18,1.294,5.902,101.1327,2.189,3.463,38.09,0,109.7,13.51,2.95,284.9
"2009-03-26 01:03:30",743506,4.957,325.4,6.439,1.124,4.332,101.1352,2.196,3.24,38,0,109.7,13.51,2.96,287.4
"2009-03-26 01:04:00",743507,5.338,328.8,6.659,1.162,5.392,101.1358,2.197,3.462,38.29,0,109.7,13.51,2.96,290.8
"2009-03-26 01:04:30",743508,5.504,328,5.466,1.088,6.165,101.1352,2.196,3.357,38.11,0,109.7,13.51,2.96,290.0
"2009-03-26 01:05:00",743509,5.952,328.5,7.461,0.943,6.991,101.1378,2.202,3.458,38.22,0,109.7,13.51,2.96,290.5
"2009-03-26 01:05:30",743510,5.59,325.7,7.225,1.23,5.93,101.1407,2.21,3.459,38.3,0,109.7,13.51,2.97,287.7
"2009-03-26 01:06:00",743511,6.202,325.1,6.269,0.991,6.426,101.1398,2.208,3.364,38.26,0,109.7,13.52,2.97,287.1
"2009-03-26 01:06:30",743512,4.975,314.6,5.006,0.963,3.546,101.1404,2.209,3.353,38.35,0,109.7,13.52,2.97,276.6
"2009-03-26 01:07:00",743513,6.076,325.2,6.142,1.245,5.998,101.1424,2.214,3.496,38.41,0,109.7,13.52,2.97,287.2
"2009-03-26 01:07:30",743514,6.574,330.4,5.39,0.753,7.248,101.1421,2.213,3.475,38.3,0,109.7,13.52,2.97,292.4
"2009-03-26 01:08:00",743515,5.81,324.6,6.5,1.135,6.7,101.1435,2.217,3.503,38.2,0,109.7,13.52,2.98,286.6
"2009-03-26 01:08:30",743516,5.252,328.5,4.026,1.457,5.662,101.1455,2.222,3.46,38.03,0,109.7,13.53,2.98,290.5
"2009-03-26 01:09:00",743517,4.923,331.6,6.36,1.243,6.292,101.1464,2.224,3.449,37.94,0,109.7,13.53,2.98,293.6
"2009-03-26 01:09:30",743518,3.409,317.1,9.12,0.691,3.71,101.1461,2.224,3.409,37.83,0,109.7,13.53,2.98,279.1
"2009-03-26 01:10:00",743519,5.325,331.8,8.08,1.16,6.256,101.1469,2.226,3.527,37.85,0,109.7,13.53,2.99,293.8
"2009-03-26 01:10:30",743520,5.665,323.1,9.21,1.298,6.286,101.1475,2.227,3.428,37.56,0,109.7,13.53,2.99,285.1
"2009-03-26 01:11:00",743521,4.781,336.4,6.681,1.196,6.841,101.1504,2.234,3.57,37.57,0,109.7,13.53,2.99,298.4
"2009-03-26 01:11:30",743522,4.135,329.5,7.096,1.046,4.897,101.156,2.249,3.423,37.44,0,109.7,13.53,3.01,291.5
"2009-03-26 01:12:00",743523,4.376,322.4,5.44,1.145,3.921,101.1645,2.271,3.444,37.41,0,109.7,13.53,3.03,284.4
"2009-03-26 01:12:30",743524,4.645,321.4,7.339,1.18,4.679,101.1708,2.287,3.438,37.23,0,109.7,13.53,3.05,283.4
"2009-03-26 01:13:00",743525,4.568,325.4,6.291,1.329,5.363,101.1739,2.294,3.524,37.28,0,109.7,13.53,3.05,287.4
"2009-03-26 01:13:30",743526,4.908,328.2,5.134,1.274,6.115,101.1784,2.306,3.552,37.36,0,109.7,13.53,3.07,290.2
"2009-03-26 01:14:00",743527,4.562,336.4,7.854,1.086,6.336,101.1781,2.305,3.551,37.3,0,109.7,13.53,3.07,298.4
"2009-03-26 01:14:30",743528,3.981,330.2,14.13,1.138,4.613,101.181,2.313,3.512,37.21,0,109.7,13.53,3.07,292.2
"2009-03-26 01:15:00",743529,4.733,320.5,6.748,1.201,5.103,101.1846,2.322,3.407,36.99,0,109.7,13.53,3.08,282.5
"2009-03-26 01:15:30",743530,4.998,315.2,6.856,1.161,4.716,101.1869,2.328,3.425,37.06,0,109.7,13.53,3.09,277.2
"2009-03-26 01:16:00",743531,5.349,318.5,5.925,1.073,5.903,101.1878,2.33,3.533,37.38,0,109.7,13.53,3.09,280.5
"2009-03-26 01:16:30",743532,4.759,324.7,7.239,1.216,6.132,101.188,2.331,3.578,37.38,0,109.7,13.53,3.09,286.7
"2009-03-26 01:17:00",743533,5.294,330,8.42,0.879,7.092,101.188,2.331,3.567,37.32,0,109.7,13.53,3.09,292.0
"2009-03-26 01:17:30",743534,3.796,312.5,6.003,0.985,4,101.188,2.331,3.523,37.13,0,109.7,13.53,3.09,274.5
"2009-03-26 01:18:00",743535,4.231,314.1,4.913,1.139,3.804,101.188,2.331,3.335,36.84,0,109.7,13.53,3.09,276.1
"2009-03-26 01:18:30",743536,4.051,323.3,8.32,1.122,4.671,101.188,2.331,3.492,36.96,0,109.7,13.53,3.09,285.3
"2009-03-26 01:19:00",743537,4.634,327.3,9.5,1.095,6.013,101.188,2.331,3.565,37.09,0,109.7,13.53,3.09,289.3
"2009-03-26 01:19:30",743538,4.078,322.5,6.094,1.257,5.664,101.188,2.331,3.613,37.31,0,109.7,13.53,3.09,284.5
"2009-03-26 01:20:00",743539,4.058,331.9,6.182,1.232,5.92,101.188,2.331,3.607,37.41,0,109.7,13.53,3.09,293.9
"2009-03-26 01:20:30",743540,3.388,328.9,7.984,1.196,4.491,101.188,2.331,3.527,37.48,0,109.7,13.53,3.09,290.9
"2009-03-26 01:21:00",743541,4.642,336.2,7.185,1.449,4.839,101.188,2.331,3.388,37.17,0,109.7,13.53,3.09,298.2
"2009-03-26 01:21:30",743542,3.49,321.4,7.381,1.237,3.949,101.188,2.331,3.493,37.37,0,109.7,13.53,3.09,283.4
"2009-03-26 01:22:00",743543,5.159,331.4,6.508,1.049,5.841,101.188,2.331,3.516,37.32,0,109.7,13.53,3.09,293.4
"2009-03-26 01:22:30",743544,4.405,329.5,6.413,1.224,5.476,101.188,2.331,3.571,37.12,0,109.7,13.53,3.09,291.5
"2009-03-26 01:23:00",743545,5.201,333.3,5.707,0.972,6.639,101.188,2.331,3.608,37.25,0,109.7,13.53,3.09,295.3
"2009-03-26 01:23:30",743546,4.211,334.7,7.383,1.376,4.95,101.188,2.331,3.527,37.36,0,109.7,13.54,3.09,296.7
"2009-03-26 01:24:00",743547,3.943,321.7,4.708,0.892,3.171,101.188,2.331,3.421,37.81,0,109.7,13.54,3.09,283.7
"2009-03-26 01:24:30",743548,4.662,320.6,5.633,1.284,4.472,101.188,2.331,3.489,38.99,0,109.7,13.54,3.09,282.6
"2009-03-26 01:25:00",743549,5.296,321.6,5.935,1.292,5.507,101.188,2.331,3.529,39.17,0,109.7,13.54,3.09,283.6
"2009-03-26 01:25:30",743550,5.545,328.7,8.35,1.066,6.529,101.188,2.331,3.644,38.73,0,109.7,13.54,3.09,290.7
"2009-03-26 01:26:00",743551,5.886,334.3,7.178,0.626,7.587,101.188,2.331,3.642,38.02,0,109.7,13.54,3.09,296.3
"2009-03-26 01:26:30",743552,5.303,313.1,5.652,1.007,4.546,101.188,2.331,3.378,37.46,0,109.7,13.54,3.09,275.1
"2009-03-26 01:27:00",743553,6.091,318.3,7.299,1.207,5.667,101.188,2.331,3.632,37.96,0,109.7,13.54,3.09,280.3
"2009-03-26 01:27:30",743554,5.486,313,6.942,1.328,4.552,101.1869,2.328,3.452,37.84,0,109.7,13.54,3.09,275.0
"2009-03-26 01:28:00",743555,6.269,318,3.665,0.793,7.432,101.1866,2.327,3.666,38.33,0,109.6,13.54,3.09,280.0
"2009-03-26 01:28:30",743556,6.349,318,7.924,1.172,6.109,101.1855,2.324,3.602,38.98,0,109.6,13.54,3.08,280.0
"2009-03-26 01:29:00",743557,6.253,321.4,6.849,1.005,6.559,101.1801,2.31,3.636,39.27,0,109.7,13.54,3.07,283.4
"2009-03-26 01:29:30",743558,4.786,314.3,6.517,1.229,4.359,101.1736,2.294,3.394,38.91,0,109.6,13.54,3.05,276.3
"2009-03-26 01:30:00",743559,5.189,309.9,8.15,1.143,5.481,101.1646,2.271,3.518,38.58,0,109.6,13.54,3.03,271.9
"2009-03-26 01:30:30",743560,4.54,316.6,9.87,1.062,5.422,101.1583,2.255,3.549,37.93,0,109.6,13.54,3.01,278.6
"2009-03-26 01:31:00",743561,5.167,322.3,6.324,0.946,7.098,101.1564,2.25,3.609,37.51,0,109.6,13.54,3.01,284.3
"2009-03-26 01:31:30",743562,5.317,319.2,6.25,1.174,5.709,101.1547,2.245,3.6,37.5,0,109.6,13.54,3.01,281.2
"2009-03-26 01:32:00",743563,6.056,308.5,6.623,1.198,5.083,101.1544,2.245,3.445,37.23,0,109.6,13.54,3.00,270.5
"2009-03-26 01:32:30",743564,6.257,307.3,7.223,1.234,5.194,101.1541,2.244,3.544,38.14,0,109.6,13.54,3.00,269.3
"2009-03-26 01:33:00",743565,6.002,311,6.261,1.278,5.404,101.1541,2.244,3.546,38.97,0,109.6,13.54,3.00,273.0
"2009-03-26 01:33:30",743566,6.035,315.6,5.253,1.415,5.826,101.1541,2.244,3.53,38.12,0,109.6,13.54,3.00,277.6
"2009-03-26 01:34:00",743567,6.821,314.5,6.219,1.184,6.858,101.1541,2.244,3.592,37.65,0,109.6,13.54,3.00,276.5
"2009-03-26 01:34:30",743568,7.078,314.1,7.202,1.2,5.988,101.1541,2.244,3.58,37.24,0,109.6,13.54,3.00,276.1
"2009-03-26 01:35:00",743569,6.661,313,6.167,1.146,5.834,101.1541,2.244,3.431,36.85,0,109.7,13.54,3.00,275.0
"2009-03-26 01:35:30",743570,6.544,313.5,6.421,1.305,6.034,101.1541,2.244,3.601,37.2,0,109.6,13.54,3.00,275.5
"2009-03-26 01:36:00",743571,5.948,307.6,6.966,1.283,6.163,101.1541,2.244,3.563,39.02,0,109.6,13.54,3.00,269.6
"2009-03-26 01:36:30",743572,6.665,311.8,6.691,1.104,6.176,101.1541,2.244,3.582,40.1,0,109.6,13.54,3.00,273.8
"2009-03-26 01:37:00",743573,6.55,315.5,5.743,1.186,5.87,101.1541,2.244,3.6,40.18,0,109.6,13.54,3.00,277.5
"2009-03-26 01:37:30",743574,6.471,322.3,8.6,1.068,6.487,101.1541,2.244,3.543,39.73,0,109.6,13.54,3.00,284.3
"2009-03-26 01:38:00",743575,5.319,318.4,4.39,0.769,3.998,101.1544,2.245,3.472,39.1,0,109.6,13.54,3.00,280.4
"2009-03-26 01:38:30",743576,6.422,318.2,6.77,1.093,6.669,101.1541,2.244,3.567,38.97,0,109.6,13.54,3.00,280.2
"2009-03-26 01:39:00",743577,6.811,325.9,11.04,1.346,6.075,101.1544,2.245,3.516,39.16,0,109.6,13.54,3.00,287.9
"2009-03-26 01:39:30",743578,6.377,330.1,6.44,1.103,7.099,101.1541,2.244,3.611,38.28,0,109.6,13.54,3.00,292.1
"2009-03-26 01:40:00",743579,5.831,327.7,5.974,1.107,5.818,101.1541,2.244,3.554,37.58,0,109.6,13.54,3.00,289.7
"2009-03-26 01:40:30",743580,6.255,328.2,7.104,1.234,6.086,101.1547,2.245,3.589,37.79,0,109.6,13.54,3.01,290.2
"2009-03-26 01:41:00",743581,4.772,334.6,10.09,0.928,4.89,101.155,2.246,3.484,37.94,0,109.6,13.54,3.01,296.6
"2009-03-26 01:41:30",743582,4.98,341.6,8.73,1.194,6.036,101.1553,2.247,3.585,37.93,0,109.6,13.54,3.01,303.6
"2009-03-26 01:42:00",743583,5.812,330,5.92,1.103,6.524,101.1564,2.25,3.559,37.66,0,109.6,13.55,3.01,292.0
"2009-03-26 01:42:30",743584,5.114,335.5,6.865,1.182,5.321,101.1572,2.252,3.5,37.46,0,109.6,13.55,3.01,297.5
"2009-03-26 01:43:00",743585,4.179,336.6,6.439,1.097,4.126,101.1584,2.255,3.433,37.19,0,109.6,13.55,3.01,298.6
"2009-03-26 01:43:30",743586,4.812,330.3,6.522,1.371,5.02,101.1593,2.257,3.586,37.19,0,109.6,13.55,3.02,292.3
"2009-03-26 01:44:00",743587,6.474,326.7,5.853,1.148,5.93,101.1584,2.255,3.504,36.9,0,109.6,13.55,3.01,288.7
"2009-03-26 01:44:30",743588,7.036,327.9,5.543,1.096,6.698,101.159,2.256,3.612,37.19,0,109.6,13.55,3.02,289.9
"2009-03-26 01:45:00",743589,6.072,330.1,6.665,1.307,6.724,101.1598,2.259,3.566,36.72,0,109.6,13.55,3.02,292.1
"2009-03-26 01:45:30",743590,5.233,338.2,6.9,1.175,6.328,101.1613,2.262,3.555,36.57,0,109.6,13.55,3.02,300.2
"2009-03-26 01:46:00",743591,4.132,324,7.517,0.993,3.359,101.1613,2.262,3.373,36.33,0,109.6,13.55,3.02,286.0
"2009-03-26 01:46:30",743592,5.45,329.5,7.361,0.857,6.44,101.1621,2.264,3.558,36.55,0,109.6,13.55,3.02,291.5
"2009-03-26 01:47:00",743593,4.172,327.6,9.02,1.172,5.212,101.1612,2.262,3.501,36.79,0,109.6,13.55,3.02,289.6
"2009-03-26 01:47:30",743594,4.364,341.8,15.73,1.048,6.634,101.1629,2.267,3.591,37.48,0,109.6,13.55,3.03,303.8
"2009-03-26 01:48:00",743595,3.558,346.1,9.73,1.183,5.538,101.172,2.29,3.54,37.39,0,109.6,13.55,3.05,308.1
"2009-03-26 01:48:30",743596,3.208,350.8,10.58,1.321,5.12,101.1777,2.304,3.458,36.85,0,109.6,13.55,3.06,312.8
"2009-03-26 01:49:00",743597,1.874,356.3,13.8,0.972,2.967,101.1845,2.321,3.421,36.56,0,109.6,13.55,3.08,318.3
"2009-03-26 01:49:30",743598,2.3,4.691,12.83,1.171,4.609,101.1859,2.325,3.47,36.81,0,109.6,13.56,3.09,326.7